EW0608 Weather Reports


time (UTC)temp
C
wind
direction
speed
KPH
gust
KPH
rain 1hr
cm
rain 24hr
cm
rain mn
cm
humidity
%
barometer
mb
20260502213839 12 74 3.2 8.0 0.00 0.03 0.00 43 1011.9
20260502213352 12 332 3.2 9.7 0.00 0.03 0.00 42 1011.9
20260502213045 11 36 4.8 9.7 0.00 0.03 0.00 42 1012.1
20260502212845 12 332 4.8 9.7 0.00 0.03 0.00 41 1011.9
20260502212337 12 37 3.2 8.0 0.00 0.03 0.00 42 1012.0
20260502211850 12 329 3.2 9.7 0.00 0.03 0.00 42 1011.9
20260502211554 12 325 3.2 9.7 0.00 0.03 0.00 43 1012.1
20260502211347 12 50 3.2 8.0 0.00 0.03 0.00 42 1011.9
20260502210839 12 327 4.8 8.0 0.00 0.03 0.00 41 1011.9
20260502210354 12 34 4.8 9.7 0.00 0.03 0.00 40 1011.8
20260502210003 12 243 4.8 9.7 0.00 0.05 0.00 41 1011.9
20260502205902 12 5 3.2 8.0 0.00 0.05 0.00 41 1011.8
20260502205355 12 297 3.2 9.7 0.00 0.05 0.00 41 1011.8
20260502204847 12 269 3.2 6.4 0.00 0.05 0.00 41 1011.8
20260502204539 12 340 0.0 9.7 0.00 0.05 0.00 42 1011.9
20260502204338 12 340 3.2 9.7 0.00 0.05 0.00 42 1011.8
20260502203851 12 293 4.8 9.7 0.00 0.05 0.00 41 1011.8
20260502203404 12 321 4.8 11.3 0.00 0.05 0.00 42 1011.8
20260502203059 12 355 1.6 11.3 0.00 0.05 0.00 41 1012.0
20260502202856 12 346 6.4 11.3 0.00 0.05 0.00 40 1011.8
20260502202348 13 298 4.8 8.0 0.00 0.05 0.00 40 1011.8
20260502201859 13 15 4.8 16.1 0.00 0.05 0.00 41 1011.9
20260502201551 12 22 4.8 16.1 0.00 0.05 0.00 41 1012.0
20260502201351 12 340 6.4 16.1 0.00 0.05 0.00 42 1011.9
20260502200844 12 5 3.2 11.3 0.00 0.05 0.00 41 1011.8
20260502200358 12 360 3.2 9.7 0.00 0.05 0.00 41 1011.8
20260502200050 12 12 4.8 9.7 0.00 0.05 0.00 43 1012.0
20260502195847 12 296 3.2 8.0 0.00 0.10 0.00 43 1011.8
20260502195340 12 236 3.2 8.0 0.00 0.10 0.00 43 1011.9
20260502194913 12 346 4.8 12.9 0.00 0.10 0.00 42 1012.1
20260502194505 11 355 4.8 12.9 0.00 0.10 0.00 43 1012.3
20260502194405 12 282 6.4 12.9 0.00 0.10 0.00 42 1012.2
20260502193857 12 77 3.2 11.3 0.00 0.10 0.00 43 1012.3
20260502193408 12 317 3.2 9.7 0.00 0.10 0.00 43 1012.3
20260502193040 12 313 3.2 9.7 0.00 0.10 0.00 42 1012.5
20260502192839 12 145 4.8 9.7 0.00 0.10 0.00 41 1012.4
20260502192351 12 159 3.2 11.3 0.00 0.10 0.00 42 1012.6
20260502191844 12 334 6.4 11.3 0.00 0.10 0.00 42 1012.5
20260502191538 12 211 1.6 8.0 0.00 0.10 0.00 44 1012.7
20260502191336 12 156 4.8 8.0 0.00 0.10 0.00 42 1012.6
20260502190848 12 5 3.2 8.0 0.00 0.10 0.00 42 1012.7
20260502190402 12 17 4.8 8.0 0.00 0.10 0.00 42 1012.8
20260502190051 12 348 4.8 9.7 0.00 0.10 0.00 43 1013.0
20260502185850 12 286 3.2 9.7 0.00 0.30 0.00 43 1012.8
20260502185343 13 67 4.8 9.7 0.00 0.30 0.00 44 1012.9
20260502184854 12 336 3.2 6.4 0.00 0.30 0.00 43 1013.0
20260502184548 12 346 3.2 6.4 0.00 0.30 0.00 44 1013.2
20260502184347 12 60 3.2 6.4 0.00 0.30 0.00 46 1013.0
20260502183858 11 54 3.2 9.7 0.00 0.30 0.00 47 1013.1
20260502183350 11 300 4.8 9.7 0.00 0.30 0.00 46 1013.2
20260502183043 11 355 1.6 9.7 0.00 0.30 0.00 47 1013.4
20260502182842 11 36 4.8 6.4 0.00 0.30 0.00 46 1013.2
20260502182357 11 45 1.6 6.4 0.00 0.30 0.00 46 1013.2
20260502181928 11 101 1.6 12.9 0.00 0.30 0.00 47 1013.2
20260502181516 11 211 3.2 12.9 0.00 0.30 0.00 46 1013.4
20260502181415 11 250 4.8 12.9 0.00 0.30 0.00 46 1013.3
20260502180848 11 18 0.0 9.7 0.00 0.30 0.00 47 1013.4
20260502180341 11 360 4.8 9.7 0.00 0.30 0.00 46 1013.6
20260502170418 11 276 3.2 8.0 0.00 0.33 0.00 50 1013.7
20260502164345 11 71 4.8 11.3 0.00 0.33 0.00 51 1013.9
20260502163838 11 312 3.2 9.7 0.00 0.33 0.00 50 1013.9
20260502163350 11 331 4.8 14.5 0.00 0.33 0.00 50 1013.8
20260502163056 11 350 4.8 14.5 0.00 0.33 0.00 48 1013.9
20260502162843 11 355 6.4 14.5 0.00 0.33 0.00 50 1013.9
20260502162336 11 53 3.2 8.0 0.00 0.33 0.00 49 1014.1
20260502161850 11 178 4.8 8.0 0.00 0.33 0.00 49 1014.1
20260502161543 11 268 4.8 8.0 0.00 0.33 0.00 49 1014.3
20260502161342 11 307 3.2 8.0 0.00 0.33 0.00 50 1014.1
20260502160855 10 32 1.6 8.0 0.00 0.33 0.00 51 1014.2
20260502160348 10 5 3.2 12.9 0.00 0.33 0.00 51 1014.2
20260502151855 10 310 3.2 8.0 0.00 0.33 0.00 53 1014.4
20260502151551 10 339 3.2 8.0 0.00 0.33 0.00 54 1014.5
20260502151347 10 313 526.3 526.3 0.00 0.00 0.00 54 1014.2
20260502150845 10 13 3.2 12.9 0.00 0.33 0.00 52 1014.5
20260502150415 11 285 8.0 12.9 0.00 0.33 0.00 53 1014.3
20260502123025 6 355 4.8 9.7 0.00 0.33 0.00 68 1014.9
20260502121515 6 46 1.6 8.0 0.00 0.33 0.00 70 1014.9
20260502114514 6 181 0.0 1.6 0.00 0.33 0.00 77 1015.0
20260502113011 5 186 0.0 1.6 0.00 0.33 0.00 82 1015.0
20260502111510 4 186 0.0 0.0 0.00 0.33 0.00 85 1015.0
20260502110009 4 186 0.0 1.6 0.00 0.33 0.00 85 1014.9
20260502104514 4 186 0.0 0.0 0.00 0.33 0.00 86 1014.9
20260502103008 4 186 0.0 0.0 0.00 0.33 0.00 86 1014.9
20260502101547 4 186 0.0 0.0 0.00 0.33 0.00 87 1014.8
20260502071516 7 303 1.6 4.8 0.00 0.33 0.00 73 1014.1
20260502070017 7 15 4.8 9.7 0.00 0.33 0.00 73 1014.0
20260502064519 7 326 3.2 11.3 0.00 0.33 0.00 73 1014.0
20260502063017 7 337 4.8 6.4 0.00 0.33 0.00 74 1014.1
20260502061509 7 355 0.0 6.4 0.00 0.33 0.00 75 1014.0
20260502060007 7 106 3.2 4.8 0.00 0.33 0.00 75 1013.9
20260502054503 8 214 1.6 3.2 0.00 0.33 0.00 73 1013.9
20260502053002 8 5 0.0 4.8 0.00 0.33 0.00 71 1013.9
20260502051559 8 163 0.0 8.0 0.00 0.33 0.00 71 1013.9
20260502050058 8 117 3.2 6.4 0.00 0.33 0.00 73 1013.7
20260502044856 9 84 1.6 6.4 0.00 0.33 0.00 72 1013.3
20260502044548 8 146 0.0 6.4 0.00 0.33 0.00 71 1013.6
20260502044347 9 146 1.6 6.4 0.00 0.33 0.00 70 1013.4
20260502043840 10 123 0.0 1.6 0.00 0.33 0.00 69 1013.5
20260502043412 10 123 0.0 4.8 0.00 0.33 0.00 68 1013.5
20260502043045 10 123 0.0 11.3 0.00 0.33 0.00 67 1013.6
20260502042843 10 123 0.0 11.3 0.00 0.33 0.00 67 1013.3
20260502042355 10 64 1.6 6.4 0.00 0.33 0.00 67 1013.5
20260502041848 10 131 3.2 8.0 0.00 0.33 0.00 67 1013.6
20260502041544 10 216 1.6 8.0 0.00 0.33 0.00 68 1013.8
20260502041340 10 210 1.6 8.0 0.00 0.33 0.00 68 1013.6
20260502040934 10 60 4.8 8.0 0.00 0.33 0.00 68 1013.5
20260502040500 10 50 4.8 8.0 0.00 0.33 0.00 68 1013.3
20260502040042 10 360 1.6 9.7 0.00 0.33 0.00 70 1013.5
20260502035842 11 78 1.6 9.7 0.00 0.33 0.33 69 1013.3
20260502035339 11 17 3.2 9.7 0.00 0.33 0.33 70 1013.2
20260502034545 10 189 3.2 9.7 0.00 0.33 0.33 69 1013.4
20260502034344 11 161 1.6 4.8 0.00 0.33 0.33 69 1013.1
20260502033837 11 152 3.2 0.0 0.00 0.00 0.33 69 1012.9
20260502033348 11 157 3.2 6.4 0.00 0.33 0.33 69 1013.0
20260502033042 10 141 0.0 9.7 0.00 0.33 0.33 68 1013.3
20260502032841 11 141 0.0 9.7 0.00 0.33 0.33 68 1013.0
20260502032353 11 184 4.8 9.7 0.00 0.33 0.33 68 1013.0
20260502031907 11 53 3.2 6.4 0.00 0.33 0.33 69 1012.9
20260502031558 11 97 1.6 8.0 0.00 0.33 0.33 69 1013.1
20260502031358 11 200 1.6 4.8 0.00 0.33 0.33 68 1012.8
20260502030911 11 154 1.6 4.8 0.00 0.33 0.33 68 1012.5
20260502030346 11 222 0.0 8.0 0.00 0.33 0.33 67 1012.6
20260502030021 11 161 3.2 8.0 0.00 0.33 0.33 67 1012.9
20260502025915 11 201 4.8 6.4 0.00 0.33 0.33 67 1012.6
20260502025408 11 144 4.8 6.4 0.00 0.33 0.33 68 1012.6
20260502024840 11 46 1.6 6.4 0.00 0.33 0.33 66 1012.7
20260502024605 11 46 0.0 6.4 0.00 0.33 0.33 67 1013.0
20260502024354 11 46 3.2 6.4 0.00 0.33 0.33 67 1012.8
20260502023906 11 46 1.6 6.4 0.00 0.33 0.33 67 1012.9
20260502023338 11 52 0.0 6.4 0.00 0.33 0.33 67 1012.8
20260502023036 11 48 1.6 6.4 0.00 0.33 0.33 67 1012.8
20260502022932 11 360 0.0 3.2 0.00 0.33 0.33 66 1012.5
20260502022340 11 360 1.6 3.2 0.00 0.33 0.33 66 1012.7
20260502021853 11 155 1.6 4.8 0.00 0.33 0.33 67 1012.8
20260502021546 11 155 0.0 4.8 0.00 0.33 0.33 65 1012.9
20260502021346 11 155 3.2 4.8 0.00 0.33 0.33 66 1012.7
20260502020838 12 135 1.6 9.7 0.00 0.33 0.33 65 1012.8
20260502020353 12 84 4.8 9.7 0.00 0.33 0.33 66 1012.7
20260502020043 11 236 3.2 9.7 0.00 0.33 0.33 66 1013.0
20260502015841 12 64 0.0 11.3 0.00 0.33 0.33 65 1012.8
20260502015354 12 64 1.6 11.3 0.00 0.33 0.33 65 1012.7
20260502014846 12 301 4.8 11.3 0.00 0.33 0.33 69 1012.7
20260502014538 11 103 4.8 11.3 0.00 0.33 0.33 68 1012.9
20260502014437 12 192 4.8 8.0 0.00 0.33 0.33 69 1012.7
20260502013903 12 101 0.0 8.0 0.00 0.33 0.33 67 1012.7
20260502013355 12 101 3.2 8.0 0.00 0.33 0.33 67 1012.5
20260502013045 12 94 0.0 3.2 0.00 0.33 0.33 67 1012.9
20260502012341 12 94 0.0 3.2 0.00 0.33 0.33 63 1012.6
20260502011853 12 333 1.6 0.0 0.00 0.00 0.33 63 1012.1
20260502011545 12 333 0.0 3.2 0.00 0.33 0.33 63 1012.4
20260502011344 12 69 1.6 3.2 0.00 0.33 0.33 65 1012.1
20260502010837 12 5 1.6 8.0 0.00 0.33 0.33 61 1011.9
20260502010352 12 55 3.2 9.7 0.00 0.33 0.33 61 1011.7
20260502010101 12 304 3.2 9.7 0.00 0.33 0.33 61 1012.0
20260502005900 12 73 3.2 9.7 0.00 0.33 0.33 61 1011.6
20260502005430 13 355 526.3 526.3 0.00 0.00 0.33 60 1011.7
20260502004839 13 344 3.2 8.0 0.00 0.33 0.33 61 1011.2
20260502004526 12 289 0.0 8.0 0.00 0.33 0.33 63 1011.2
20260502003913 13 55 1.6 6.4 0.00 0.33 0.33 63 1010.4
20260502003344 13 49 1.6 0.0 0.00 0.00 0.33 68 1010.2
20260502003036 13 307 0.0 6.4 0.00 0.33 0.33 65 1010.8
20260502002835 13 307 0.0 6.4 0.00 0.33 0.33 63 1010.4
20260502002348 13 63 3.2 6.4 0.00 0.33 0.33 66 1010.1
20260502001841 13 296 3.2 4.8 0.00 0.33 0.33 63 1010.2
20260502001554 12 314 1.6 4.8 0.00 0.33 0.33 65 1010.3
20260502001353 13 314 0.0 3.2 0.00 0.33 0.33 72 1010.0
20260502000906 13 314 0.0 3.2 0.00 0.33 0.33 72 1009.9
20260502000418 13 314 0.0 4.8 0.00 0.33 0.33 72 1009.6
20260502000008 13 314 1.6 4.8 0.00 0.33 0.33 73 1009.6
20260501235907 13 314 1.6 4.8 0.00 0.33 0.33 71 1009.2
20260501235337 13 306 3.2 4.8 0.00 0.33 0.33 68 1009.7
20260501234851 13 322 1.6 4.8 0.00 0.33 0.33 68 1009.5
20260501234543 13 322 0.0 4.8 0.00 0.33 0.33 63 1009.5
20260501234343 13 322 1.6 6.4 0.00 0.33 0.33 62 1009.1
20260501233839 13 322 4.8 6.4 0.03 0.33 0.33 66 1009.1
20260501233351 13 323 3.2 6.4 0.03 0.33 0.33 69 1008.9
20260501233045 13 88 1.6 3.2 0.03 0.33 0.33 73 1009.2
20260501232844 14 88 0.0 1.6 0.03 0.33 0.33 73 1009.0
20260501232336 14 88 0.0 4.8 0.03 0.33 0.33 64 1008.9
20260501231631 14 135 0.0 3.2 0.03 0.33 0.33 63 1009.3
20260501231356 15 135 0.0 3.2 0.03 0.33 0.33 63 1009.1
20260501230848 15 135 1.6 3.2 0.03 0.33 0.33 65 1008.9
20260501230404 15 135 0.0 3.2 0.03 0.33 0.33 63 1009.0
20260501230028 15 135 1.6 4.8 0.03 0.33 0.33 62 1009.2
20260501225338 15 135 3.2 9.7 0.03 0.33 0.33 53 1009.0
20260501224851 15 145 4.8 12.9 0.03 0.33 0.33 52 1009.4
20260501224556 15 180 6.4 12.9 0.03 0.33 0.33 52 1009.7
20260501224344 15 174 6.4 9.7 0.03 0.33 0.33 55 1009.6
20260501223837 15 65 3.2 4.8 0.00 0.30 0.30 58 1009.6
20260501223408 16 71 1.6 3.2 0.00 0.30 0.30 55 1009.5
20260501223045 16 71 0.0 4.8 0.00 0.30 0.30 52 1009.6
20260501222836 16 71 1.6 4.8 0.00 0.30 0.30 49 1009.3
20260501222349 16 71 3.2 4.8 0.00 0.30 0.30 48 1009.0
20260501221842 16 88 1.6 8.0 0.00 0.30 0.30 47 1008.9
20260501221518 16 88 3.2 8.0 0.00 0.30 0.30 47 1009.2
20260501221415 16 162 1.6 4.8 0.00 0.30 0.30 48 1008.9
20260501220848 17 344 1.6 4.8 0.00 0.30 0.30 45 1008.8
20260501220341 17 107 1.6 4.8 0.00 0.30 0.30 43 1008.9
20260501220030 16 183 1.6 4.8 0.00 0.30 0.30 44 1009.2
20260501215929 17 239 3.2 4.8 0.00 0.33 0.30 43 1008.9
20260501215336 17 173 1.6 6.4 0.00 0.33 0.30 43 1008.8
20260501214908 17 216 3.2 6.4 0.00 0.33 0.30 44 1008.7
20260501214541 16 155 0.0 6.4 0.00 0.33 0.30 45 1008.9
20260501214340 17 155 0.0 6.4 0.00 0.33 0.30 46 1008.7